This demonstration page uses our WeatherBlox Daily Observations layout. Learn more.

Left ArrowRight Arrow

Hourly Observations for September 14, 2021

Temp ( °F °C ) Dew Point ( °F °C ) Humidity (%) Winds ( mph kmh ) Pressure ( in mb ) Visibility ( mi km ) Precip ( " mm )
12:53 am 00:53 Clear 64 17.8 62 16.7 93 93 WNW 6 9 29.88 1012 8 13 0.00 0.00
1:53 am 01:53 Clear 65 18.3 63 17.2 93 93 NW 7 11 29.88 1012 8 13 0.00 0.00
2:53 am 02:53 Clear 63 17.2 61 16.1 93 93 W 5 7 29.89 1012 8 13 0.00 0.00
3:53 am 03:53 Clear 63 17.2 61 16.1 93 93 WNW 6 9 29.91 1013 9 14 0.00 0.00
4:53 am 04:53 Clear 62 16.7 59 15 90 90 NW 7 11 29.91 1013 10 16 0.00 0.00
5:53 am 05:53 Clear 62 16.7 60 15.6 93 93 N 3 6 29.91 1013 10 16 0.00 0.00
6:53 am 06:53 Partly Cloudy 62 16.7 60 15.6 93 93 Calm 29.93 1014 10 16 0.00 0.00
7:53 am 07:53 Partly Cloudy 62 16.7 60 15.6 93 93 NNE 7 11 29.94 1014 9 14 0.00 0.00
8:35 am 08:35 Mostly Cloudy 63 17.2 60 15.6 90 90 NNE 9 15 29.95 1014 8 13 0.00 0.00
8:53 am 08:53 Mostly Cloudy with Light Rain 63 17.2 61 16.1 93 93 N 10 17 29.98 1015 6 10 0.00 0.00
9:19 am 09:19 Mostly Cloudy with Mist and Fog 63 17.2 61 16.1 93 93 NE 10 17 29.96 1014 6 10 0.00 0.00
9:53 am 09:53 Cloudy with Mist and Fog 63 17.2 61 16.1 93 93 N 13 20 30.00 1016 6 10 0.00 0.00
10:53 am 10:53 Cloudy 67 19.4 61 16.1 81 81 N 8 13 30.02 1017 8 13 0.00 0.00
11:00 am 11:00 Cloudy 68 20 61 16.1 78 78 N 10 17 30.00 1016 10 16 0.00 0.00
11:30 am 11:30 Mostly Cloudy 68 20 60 15.6 76 76 N 9 15 30.00 1016 10 16 0.00 0.00
11:53 am 11:53 Mostly Cloudy 69 20.6 60 15.6 73 73 NNE 6 9 30.01 1016 10 16 0.00 0.00
12:13 pm 12:13 Partly Cloudy 71 21.7 61 16.1 71 71 N 8 13 29.96 1015 10 16 0.00 0.00
12:53 pm 12:53 Sunny 72 22.2 60 15.6 66 66 N 10 17 30.01 1016 10 16 0.00 0.00
1:53 pm 13:53 Sunny 76 24.4 59 15 56 56 NNW 12 19 29.99 1016 10 16 0.00 0.00
2:53 pm 14:53 Partly Cloudy 72 22.2 60 15.6 66 66 N 13 20 29.99 1016 10 16 0.00 0.00
3:53 pm 15:53 Sunny 74 23.3 58 14.4 57 57 NE 6 9 29.97 1015 10 16 0.00 0.00
4:53 pm 16:53 Sunny 74 23.3 57 13.9 56 56 NE 5 7 29.97 1015 10 16 0.00 0.00
5:53 pm 17:53 Sunny 76 24.4 57 13.9 52 52 ESE 7 11 29.97 1015 10 16 0.00 0.00
6:53 pm 18:53 Sunny 74 23.3 57 13.9 56 56 ESE 6 9 29.98 1015 10 16 0.00 0.00
7:53 pm 19:53 Clear 68 20 59 15 73 73 ENE 7 11 29.98 1015 10 16 0.00 0.00
8:53 pm 20:53 Clear 66 18.9 58 14.4 75 75 ENE 7 11 29.99 1016 10 16 0.00 0.00
9:53 pm 21:53 Clear 63 17.2 56 13.3 78 78 E 3 6 30.02 1017 10 16 0.00 0.00
10:53 pm 22:53 Clear 61 16.1 55 12.8 81 81 E 5 7 30.02 1017 10 16 0.00 0.00
11:53 pm 23:53 Clear 62 16.7 56 13.3 80 80 E 5 7 30.01 1016 10 16 0.00 0.00

Powered by AerisWeather